[[{"header":{"parameterUnit":"m.s-1","parameterCategory":1,"la1":30.2991,"la2":30.254,"lo1":-89.0895,"lo2":-89.0444,"dy":0.0017,"dx":0.0017,"nx":28,"ny":28,"refTime":"2023-09-01T09:00:00:Z","depth":0,"parameterNumber":2,"parameterNumberName":"U-component_of_WINDS"},"data":[0,0,0,0,0,0,0,0,0,0,0,0,0,0,0,0,0,0,0,0,0,0,0,0,0,0,0,0,0,0,0,0,0,0,0,0,0,0,0,0,0,0,0,0,0,0,0,0,0,0,0,0,0,0,0,0,0,0,0.5488,0.5489,0,0.5564,0.5565,0.5566,0.5615,0.5615,0.5615,0.5616,0.5693,0.5695,0.5697,0,0,0,0,0,0,0,0,0,0,0,0,0,0.5383,0.5384,0.5488,0.5489,0.549,0.5564,0.5565,0.5566,0.5615,0.5615,0.5615,0.5616,0.5692,0.5695,0.5697,0,0,0,0,0,0,0,0,0,0,0,0,0,0.5441,0.5385,0.5488,0.5523,0.5527,0.5564,0.5565,0.5567,0.5615,0.5615,0.5616,0.5616,0.5692,0.5694,0.5697,0.5705,0,0,0.5705,0.5706,0,0,0,0,0,0,0,0,0.5437,0.5444,0.5517,0.5521,0.5525,0.5581,0.5557,0.5613,0.5615,0.5581,0.5616,0.5616,0.5655,0.5661,0.5674,0.5708,0.5712,0.5705,0.5707,0.5708,0.5709,0,0,0,0,0,0,0,0.5433,0.5441,0.5518,0.5518,0.5523,0.5535,0.5543,0.5567,0.5615,0.5584,0.5588,0.5596,0.5657,0.5671,0.5676,0.5713,0.5705,0.5708,0.5709,0.571,0.5756,0.5756,0,0,0,0,0,0,0.5424,0.5438,0.5516,0.552,0.5481,0.5536,0.5546,0.5562,0.5615,0.5623,0.5596,0.5598,0.5667,0.5673,0.5679,0.5691,0.5708,0.5711,0.5712,0.5757,0.5756,0.5756,0,0,0,0,0,0,0.5421,0.543,0.5513,0.548,0.5492,0.5537,0.5555,0.5564,0.5578,0.5624,0.5632,0.5602,0.5667,0.5676,0.5698,0.5694,0.5712,0.5714,0.5757,0.5757,0.5756,0.5715,0,0,0,0,0,0,0.5418,0.5429,0.5433,0.548,0.5493,0.553,0.5555,0.5565,0.5582,0.5586,0.5631,0.5639,0.5668,0.5694,0.5701,0.5698,0.5716,0.5758,0.5757,0.5756,0.5717,0.5713,0.571,0,0,0,0,0,0.5414,0.5418,0.5433,0.5442,0.5499,0.553,0.5537,0.5571,0.5582,0.5586,0.5615,0.5638,0.5694,0.5696,0.5704,0.5702,0.5758,0.5757,0.5756,0.5718,0.5714,0.571,0,0,0,0,0,0,0.5369,0.5425,0.5442,0.5461,0.549,0.5538,0.5544,0.5565,0.5592,0.5594,0.5635,0.5645,0.5663,0.5685,0.5686,0.5712,0.5729,0.5729,0.5697,0.5693,0.569,0.5683,0.5719,0,0,0,0,0,0.5362,0.5383,0.543,0.5443,0.5456,0.5497,0.5512,0.5536,0.5568,0.558,0.5611,0.5641,0.5666,0.5681,0.5706,0.5721,0.5731,0.5724,0.572,0.5717,0.5717,0.5726,0.5723,0.5753,0.5753,0.5753,0,0,0.5346,0.5379,0.539,0.5434,0.546,0.548,0.5508,0.5528,0.5543,0.5583,0.5606,0.563,0.5666,0.5684,0.5694,0.5703,0.5711,0.5716,0.5713,0.5715,0.5724,0.5721,0.5719,0.5752,0.5753,0.5753,0,0,0.5327,0.5355,0.5368,0.5393,0.5431,0.5458,0.5461,0.5506,0.5523,0.5547,0.5577,0.5596,0.5637,0.5661,0.5679,0.5669,0.5691,0.5677,0.5658,0.5666,0.5663,0.5662,0.5657,0.5655,0.5677,0.5676,0.5676,0,0.5303,0.5335,0.5372,0.539,0.5409,0.5446,0.5459,0.5482,0.5526,0.5537,0.5548,0.56,0.5627,0.5651,0.5649,0.5662,0.5666,0.5671,0.5661,0.5659,0.5658,0.5654,0.5653,0.5674,0.5675,0.5675,0.5675,0,0.5302,0.5324,0.533,0.5372,0.5391,0.5407,0.5445,0.546,0.5482,0.5508,0.5532,0.5565,0.5597,0.5605,0.5627,0.5632,0.5637,0.5653,0.567,0.5652,0.565,0.5648,0.5671,0.5672,0.5673,0.5673,0,0,0.5257,0.5319,0.532,0.5339,0.5384,0.5402,0.5419,0.5451,0.5462,0.5492,0.5506,0.5541,0.5556,0.5576,0.5601,0.5608,0.5597,0.5624,0.5625,0.5617,0.5604,0.559,0.5588,0.5612,0.5612,0.5612,0.5601,0,0.5244,0.5277,0.5311,0.5331,0.5351,0.5388,0.5402,0.5431,0.5456,0.5476,0.5504,0.5527,0.5547,0.5559,0.5567,0.5596,0.5595,0.5598,0.5625,0.5626,0.5614,0.5587,0.5572,0.556,0.56,0.56,0.56,0,0.5233,0.5261,0.5284,0.5326,0.5336,0.5349,0.538,0.54,0.5433,0.5451,0.5473,0.5499,0.5518,0.5534,0.5561,0.5562,0.5575,0.5591,0.5592,0.5595,0.5611,0.5587,0.5557,0.5554,0.5598,0.5598,0.5599,0,0.5196,0.5239,0.5258,0.5274,0.5324,0.5332,0.5354,0.5388,0.5404,0.5432,0.5443,0.5472,0.5488,0.551,0.5543,0.5552,0.5566,0.5585,0.5581,0.558,0.5581,0.558,0.5551,0.5592,0.5592,0.5592,0.5592,0,0.5178,0.519,0.5242,0.5254,0.5268,0.5307,0.532,0.5345,0.5375,0.5391,0.5425,0.5439,0.5483,0.5503,0.5529,0.5547,0.5554,0.5568,0.5575,0.5564,0.5562,0.5573,0.5574,0.5591,0.5591,0.5591,0.5592,0,0.5138,0.5174,0.5197,0.5243,0.5255,0.5263,0.5303,0.5315,0.5342,0.5362,0.5369,0.5411,0.5436,0.5472,0.5508,0.5526,0.5539,0.5551,0.5528,0.5531,0.5525,0.5524,0.55,0.5498,0.5541,0.554,0.554,0,0.5124,0.5134,0.5181,0.5194,0.5215,0.5236,0.5253,0.5292,0.5308,0.5347,0.5354,0.5382,0.5406,0.5444,0.5478,0.5505,0.5517,0.5507,0.5521,0.551,0.5515,0.5514,0.5514,0.5503,0.5502,0.5501,0.5501,0,0.5093,0.511,0.5134,0.5164,0.5183,0.5208,0.5235,0.5244,0.5288,0.5305,0.5331,0.535,0.5386,0.5413,0.5445,0.5467,0.5491,0.5496,0.5496,0.5485,0.5471,0.5477,0.5517,0.5496,0.5497,0.5497,0.5497,0.5498,0.5065,0.5075,0.511,0.5135,0.5159,0.5183,0.5197,0.5225,0.5248,0.5281,0.5302,0.5327,0.536,0.5405,0.5426,0.5446,0.5455,0.5456,0.5456,0.5455,0.5451,0.5469,0.5452,0.5452,0.5452,0.5452,0.5452,0,0.5035,0.5059,0.5082,0.5118,0.5137,0.5159,0.519,0.5204,0.5226,0.5254,0.5277,0.5307,0.5333,0.5369,0.5397,0.5406,0.5418,0.5412,0.5411,0.5415,0.5441,0.5437,0.5402,0.5402,0.5402,0.5402,0.5402,0.5402,0.5021,0.504,0.5061,0.5091,0.5116,0.514,0.5155,0.5178,0.5201,0.5232,0.5254,0.5277,0.5309,0.534,0.5365,0.5374,0.5383,0.5374,0.5386,0.5409,0.5414,0.5418,0.5415,0.5375,0.5375,0.5359,0.5359,0.5359]},{"header":{"parameterUnit":"m.s-1","parameterCategory":1,"la1":30.2991,"la2":30.254,"lo1":-89.0895,"lo2":-89.0444,"dy":0.0017,"dx":0.0017,"nx":28,"ny":28,"refTime":"2023-09-01T09:00:00:Z","depth":0,"parameterNumber":3,"parameterNumberName":"V-component_of_WINDS"},"data":[0,0,0,0,0,0,0,0,0,0,0,0,0,0,0,0,0,0,0,0,0,0,0,0,0,0,0,0,0,0,0,0,0,0,0,0,0,0,0,0,0,0,0,0,0,0,0,0,0,0,0,0,0,0,0,0,0,0,-0.1921,-0.1922,0,-0.2051,-0.2053,-0.2054,-0.2137,-0.2137,-0.2138,-0.2138,-0.2273,-0.2276,-0.2279,0,0,0,0,0,0,0,0,0,0,0,0,0,-0.1743,-0.1746,-0.1921,-0.1922,-0.1924,-0.2051,-0.2053,-0.2055,-0.2137,-0.2137,-0.2138,-0.2138,-0.2272,-0.2276,-0.2279,0,0,0,0,0,0,0,0,0,0,0,0,0,-0.1841,-0.1747,-0.1921,-0.198,-0.1987,-0.2051,-0.2053,-0.2055,-0.2136,-0.2137,-0.2138,-0.2139,-0.2271,-0.2275,-0.228,-0.2295,0,0,-0.2294,-0.2296,0,0,0,0,0,0,0,0,-0.1836,-0.1848,-0.197,-0.1976,-0.1984,-0.2078,-0.204,-0.2136,-0.2136,-0.208,-0.2138,-0.2139,-0.2208,-0.2218,-0.2241,-0.2302,-0.2307,-0.2295,-0.2298,-0.23,-0.2301,0,0,0,0,0,0,0,-0.1829,-0.1843,-0.1973,-0.1971,-0.198,-0.2001,-0.2015,-0.2058,-0.2138,-0.2085,-0.2091,-0.2105,-0.2212,-0.2236,-0.2244,-0.2309,-0.2295,-0.2299,-0.2302,-0.2304,-0.2389,-0.2389,0,0,0,0,0,0,-0.1812,-0.1836,-0.1969,-0.1977,-0.191,-0.2003,-0.202,-0.2047,-0.2138,-0.2152,-0.2104,-0.2109,-0.2227,-0.2239,-0.2249,-0.2274,-0.23,-0.2304,-0.2307,-0.239,-0.2389,-0.2388,0,0,0,0,0,0,-0.1808,-0.1823,-0.1963,-0.1908,-0.1928,-0.2006,-0.2036,-0.205,-0.2074,-0.2153,-0.2168,-0.2115,-0.2228,-0.2243,-0.2283,-0.228,-0.2306,-0.2311,-0.239,-0.2389,-0.2389,-0.2322,0,0,0,0,0,0,-0.1803,-0.1821,-0.1828,-0.1908,-0.193,-0.1994,-0.2036,-0.2052,-0.2082,-0.2088,-0.2166,-0.218,-0.223,-0.2276,-0.2288,-0.2287,-0.2314,-0.2391,-0.239,-0.2389,-0.2325,-0.2319,-0.2314,0,0,0,0,0,-0.1796,-0.1804,-0.1828,-0.1843,-0.194,-0.1994,-0.2007,-0.2064,-0.2081,-0.2089,-0.2139,-0.2177,-0.2277,-0.2279,-0.2294,-0.2294,-0.2392,-0.239,-0.2389,-0.2327,-0.232,-0.2314,0,0,0,0,0,0,-0.1723,-0.1816,-0.1843,-0.1877,-0.1927,-0.2008,-0.2019,-0.2055,-0.2101,-0.2105,-0.2175,-0.2191,-0.2225,-0.2263,-0.2263,-0.2313,-0.2339,-0.234,-0.2287,-0.2281,-0.2275,-0.2266,-0.2318,0,0,0,0,0,-0.171,-0.1746,-0.1826,-0.1848,-0.1872,-0.194,-0.1966,-0.2006,-0.206,-0.2082,-0.2136,-0.2187,-0.223,-0.2258,-0.2302,-0.233,-0.2348,-0.2337,-0.2331,-0.2327,-0.2328,-0.2345,-0.2341,-0.2384,-0.2384,-0.2384,0,0,-0.1686,-0.1741,-0.176,-0.1835,-0.1878,-0.1914,-0.1958,-0.1994,-0.2021,-0.2088,-0.2129,-0.217,-0.2232,-0.2266,-0.2284,-0.2299,-0.2319,-0.2325,-0.232,-0.2324,-0.2344,-0.2339,-0.2336,-0.2383,-0.2383,-0.2384,0,0,-0.1659,-0.1704,-0.1728,-0.177,-0.1835,-0.188,-0.1885,-0.1961,-0.199,-0.2032,-0.2083,-0.2116,-0.2189,-0.2231,-0.2262,-0.225,-0.2287,-0.2262,-0.2234,-0.225,-0.2247,-0.2244,-0.224,-0.2238,-0.2262,-0.2262,-0.2262,0,-0.1621,-0.1676,-0.1736,-0.1769,-0.18,-0.1861,-0.1886,-0.1924,-0.1999,-0.202,-0.2035,-0.2127,-0.2174,-0.2219,-0.2215,-0.2238,-0.2247,-0.2254,-0.2242,-0.224,-0.2239,-0.2236,-0.2234,-0.2259,-0.2259,-0.226,-0.226,0,-0.1626,-0.1663,-0.1675,-0.1746,-0.1778,-0.1807,-0.1871,-0.1897,-0.1933,-0.1976,-0.2018,-0.2075,-0.2132,-0.2145,-0.2181,-0.2195,-0.2203,-0.2229,-0.2257,-0.223,-0.2229,-0.2228,-0.2254,-0.2255,-0.2256,-0.2257,0,0,-0.1559,-0.1661,-0.1664,-0.1697,-0.1772,-0.1802,-0.1833,-0.1887,-0.1908,-0.1958,-0.1986,-0.2045,-0.207,-0.2105,-0.2146,-0.216,-0.2147,-0.2185,-0.2188,-0.2177,-0.2166,-0.2146,-0.2144,-0.2171,-0.2171,-0.2171,-0.2161,0,-0.1544,-0.1603,-0.1656,-0.1696,-0.1731,-0.1788,-0.1815,-0.1864,-0.1905,-0.1941,-0.1987,-0.2028,-0.2057,-0.2079,-0.2095,-0.2145,-0.2146,-0.2146,-0.2199,-0.22,-0.2182,-0.2143,-0.2123,-0.211,-0.2161,-0.2161,-0.2161,0,-0.1536,-0.1582,-0.1624,-0.1695,-0.1712,-0.1735,-0.1789,-0.1822,-0.1879,-0.1908,-0.1945,-0.1988,-0.2024,-0.2046,-0.2096,-0.2095,-0.2119,-0.2146,-0.2147,-0.2155,-0.2179,-0.2151,-0.2108,-0.2106,-0.216,-0.216,-0.216,0,-0.1483,-0.1556,-0.1591,-0.1617,-0.17,-0.1715,-0.175,-0.1807,-0.1836,-0.1883,-0.1903,-0.1953,-0.1981,-0.2019,-0.2074,-0.2085,-0.2118,-0.2145,-0.2144,-0.2142,-0.2149,-0.2148,-0.211,-0.2163,-0.2163,-0.2163,-0.2163,0,-0.1462,-0.1486,-0.1568,-0.159,-0.1618,-0.1679,-0.1705,-0.1745,-0.1795,-0.1825,-0.1878,-0.1905,-0.1976,-0.2012,-0.2055,-0.2089,-0.2102,-0.2126,-0.2138,-0.2122,-0.2119,-0.214,-0.2143,-0.2162,-0.2162,-0.2162,-0.2162,0,-0.1409,-0.1465,-0.1507,-0.1581,-0.1601,-0.1618,-0.1682,-0.1705,-0.1748,-0.1786,-0.1798,-0.1867,-0.1911,-0.197,-0.2033,-0.2062,-0.2092,-0.2109,-0.2073,-0.208,-0.2075,-0.2075,-0.205,-0.205,-0.2101,-0.21,-0.21,0,-0.1392,-0.1412,-0.1488,-0.1512,-0.1545,-0.1583,-0.1613,-0.1673,-0.1702,-0.1766,-0.1781,-0.183,-0.1872,-0.1941,-0.1996,-0.2044,-0.2064,-0.2052,-0.2072,-0.2055,-0.2065,-0.2063,-0.2065,-0.2047,-0.2046,-0.2046,-0.2045,0,-0.1357,-0.1384,-0.1424,-0.1474,-0.1508,-0.155,-0.1595,-0.1611,-0.1681,-0.171,-0.1756,-0.1789,-0.1853,-0.19,-0.1956,-0.1992,-0.203,-0.2038,-0.204,-0.2025,-0.2004,-0.2016,-0.206,-0.2039,-0.2039,-0.204,-0.204,-0.204,-0.1323,-0.1343,-0.1399,-0.1442,-0.1482,-0.1522,-0.1547,-0.1593,-0.1632,-0.1689,-0.1721,-0.1766,-0.1821,-0.1899,-0.1934,-0.197,-0.1985,-0.1988,-0.1989,-0.1989,-0.1984,-0.1997,-0.198,-0.198,-0.1981,-0.1981,-0.1981,0,-0.1291,-0.133,-0.1368,-0.1429,-0.1463,-0.1494,-0.1545,-0.1571,-0.1609,-0.1657,-0.1697,-0.1749,-0.1795,-0.1854,-0.1904,-0.1921,-0.194,-0.1932,-0.1932,-0.194,-0.1968,-0.1961,-0.1916,-0.1916,-0.1916,-0.1916,-0.1916,-0.1916,-0.1278,-0.1314,-0.1346,-0.1401,-0.144,-0.1484,-0.151,-0.1547,-0.1586,-0.1641,-0.168,-0.1717,-0.1769,-0.1823,-0.1866,-0.1882,-0.1899,-0.1886,-0.1907,-0.1932,-0.1938,-0.1944,-0.1938,-0.1889,-0.1889,-0.1877,-0.1876,-0.1876]}]]